EW3836 Weather Reports


Display with metric or nautical units.
time (UTC)temp
F
wind
direction
speed
MPH
gust
MPH
rain 1hr
in
rain 24hr
in
rain mn
in
humidity
%
barometer
mb
20260905224552 60 261 0.0 0.0 0.00 0.22 0.22 66 1014.0
20260905223049 58 209 0.0 0.0 0.00 0.22 0.22 69 1014.3
20260905221553 56 107 0.0 0.0 0.01 0.22 0.22 76 1014.2
20260905220047 54 146 0.0 0.0 0.01 0.22 0.22 84 1014.5
20260905214546 54 98 0.0 0.0 0.01 0.22 0.22 87 1014.5
20260905213053 53 165 0.0 0.0 0.00 0.21 0.21 87 1014.8
20260905211547 53 144 0.0 0.0 0.00 0.21 0.21 84 1014.8
20260905210044 53 133 0.0 0.0 0.00 0.21 0.21 84 1014.2
20260905204543 52 100 0.0 0.0 0.00 0.21 0.21 85 1014.6
20260905203052 54 167 0.0 0.0 0.00 0.21 0.21 80 1015.3
20260905201555 55 300 0.0 0.0 0.00 0.21 0.21 78 1014.9
20260905200041 57 79 0.0 0.0 0.00 0.21 0.21 76 1014.8
20260905194539 57 50 0.0 0.0 0.00 0.21 0.21 73 1014.4
20260905193039 58 317 0.0 0.0 0.00 0.21 0.21 74 1014.4
20260905191535 57 51 0.0 0.0 0.00 0.21 0.21 76 1014.5
20260905190030 55 202 0.0 0.0 0.00 0.21 0.21 76 1014.8
20260905184531 55 250 0.0 0.0 0.00 0.21 0.21 76 1014.9
20260905183036 54 224 0.0 0.0 0.00 0.21 0.21 77 1014.9
20260905181526 54 250 0.0 0.0 0.00 0.21 0.21 77 1014.9
20260905180023 55 271 0.0 0.0 0.00 0.21 0.21 77 1015.2
20260905174522 54 284 0.0 0.0 0.00 0.21 0.21 80 1015.0
20260905173021 54 297 0.0 0.0 0.00 0.21 0.21 80 1015.0
20260905171521 53 321 0.0 0.0 0.00 0.21 0.21 80 1014.9
20260905170020 54 323 0.0 0.0 0.00 0.21 0.21 77 1014.8
20260905164520 54 323 0.0 0.0 0.00 0.21 0.21 76 1014.7
20260905163021 55 350 0.0 0.0 0.00 0.21 0.21 77 1014.5
20260905161520 54 350 0.0 0.0 0.00 0.21 0.21 80 1014.6
20260905160017 54 344 0.0 0.0 0.00 0.21 0.21 82 1014.5
20260905154516 53 344 0.0 0.0 0.00 0.21 0.21 77 1014.7
20260905153021 52 344 0.0 0.0 0.00 0.21 0.21 87 1014.7
20260905151522 51 344 0.0 0.0 0.00 0.21 0.21 89 1014.6
20260905150020 50 102 0.0 0.0 0.00 0.21 0.21 88 1014.4
20260905144518 49 113 0.0 0.0 0.00 0.21 0.21 86 1014.2
20260905143013 48 119 0.0 0.0 0.01 0.21 0.21 87 1014.2
20260905141512 48 98 0.0 0.0 0.03 0.21 0.21 88 1014.1
20260905140011 47 140 0.0 0.0 0.05 0.21 0.21 91 1014.2
20260905134510 47 102 0.0 0.0 0.09 0.21 0.21 92 1014.3
20260905133008 46 271 0.0 0.0 0.13 0.20 0.20 92 1014.2
20260905131506 47 271 0.0 0.0 0.15 0.18 0.18 91 1014.3
20260905130005 47 273 0.0 0.0 0.15 0.15 0.15 90 1014.3
20260905124512 47 273 0.0 0.0 0.11 0.11 0.11 89 1014.6
20260905123002 48 195 0.0 0.0 0.07 0.07 0.07 88 1015.2
20260905121600 47 202 0.0 0.0 0.03 0.03 0.03 88 1015.1
20260905120054 49 207 0.0 0.0 0.00 0.00 0.00 80 1014.9
20260905114551 50 207 0.0 0.0 0.00 0.00 0.00 75 1014.4
20260905113051 50 238 0.0 0.0 0.00 0.00 0.00 74 1014.2
20260905111552 50 220 0.0 0.0 0.00 0.00 0.00 74 1013.9
20260905110047 50 315 0.0 0.0 0.00 0.00 0.00 73 1013.8
20260905104556 50 143 0.0 0.0 0.00 0.00 0.00 72 1013.7
20260905103043 50 148 0.0 0.0 0.00 0.00 0.00 73 1013.5
20260905101542 50 148 0.0 0.0 0.00 0.00 0.00 74 1013.7
20260905100043 50 182 0.0 0.0 0.00 0.00 0.00 72 1013.6
20260905094537 50 196 0.0 0.0 0.00 0.00 0.00 71 1013.7
20260905093035 52 211 0.0 0.0 0.00 0.00 0.00 67 1013.6
20260905091536 53 170 0.0 0.0 0.00 0.00 0.00 65 1013.5
20260905090033 54 165 0.0 0.0 0.00 0.00 0.00 64 1013.6
20260905084530 53 146 0.0 0.0 0.00 0.00 0.00 64 1013.6
20260905083030 53 161 0.0 0.0 0.00 0.00 0.00 64 1013.7
20260905081527 53 177 0.0 0.0 0.00 0.00 0.00 65 1013.8
20260905080025 52 168 0.0 0.0 0.00 0.00 0.00 66 1013.7
20260905074525 54 133 0.0 0.0 0.00 0.00 0.00 58 1013.6
20260905073020 54 122 0.0 0.0 0.00 0.00 0.00 57 1013.3
20260905071517 54 116 0.0 0.0 0.00 0.00 0.00 56 1013.2
20260905070012 54 121 0.0 0.0 0.00 0.00 0.00 59 1013.0
20260905064511 54 117 0.0 0.0 0.00 0.00 0.00 59 1012.9
20260905063011 54 121 0.0 0.0 0.00 0.00 0.00 57 1012.8
20260905061524 53 122 0.0 0.0 0.00 0.00 0.00 60 1012.7
20260905060010 52 125 0.0 0.0 0.00 0.00 0.00 62 1012.7
20260905054509 52 119 0.0 0.0 0.00 0.00 0.00 63 1012.6
20260905053009 52 127 0.0 0.0 0.00 0.00 0.00 64 1012.7
20260905051517 52 115 0.0 0.0 0.00 0.00 0.00 63 1012.7
20260905050008 52 116 0.0 0.0 0.00 0.00 0.00 63 1012.8
20260905044508 52 122 0.0 0.0 0.00 0.01 0.00 61 1012.8
20260905043007 52 122 0.0 0.0 0.00 0.01 0.00 64 1012.8
20260905041511 52 120 0.0 0.0 0.00 0.01 0.00 64 1012.8
20260905040107 53 121 0.0 0.0 0.00 0.01 0.00 62 1012.9
20260905034505 54 111 0.0 0.0 0.00 0.05 0.00 58 1012.9
20260905033006 55 108 0.0 0.0 0.00 0.05 0.00 56 1012.9
20260905031504 55 98 0.0 0.0 0.00 0.05 0.00 55 1012.9
20260905030010 55 109 0.0 0.0 0.00 0.05 0.00 56 1012.9
20260905024502 55 109 0.0 0.0 0.00 0.11 0.00 55 1012.8
20260905023002 56 96 0.0 0.0 0.00 0.11 0.00 55 1012.7
20260905021500 56 122 0.0 0.0 0.00 0.11 0.00 55 1012.8
20260905020100 57 123 0.0 0.0 0.00 0.11 0.00 54 1012.8
20260905014607 57 146 0.0 0.0 0.00 0.12 0.00 53 1012.8
20260905013117 57 141 0.0 0.0 0.00 0.12 0.00 53 1012.7
20260905011657 58 156 0.0 0.0 0.00 0.12 0.00 51 1012.7
20260905010100 60 355 0.0 0.0 0.00 0.12 0.00 52 1012.5
20260905004637 61 59 0.0 0.0 0.00 0.12 0.00 49 1012.5
20260905003056 62 35 0.0 0.0 0.00 0.12 0.00 49 1012.2
20260905001605 64 265 0.0 0.0 0.00 0.12 0.00 43 1012.1
20260905000056 64 24 0.0 0.0 0.00 0.12 0.00 45 1012.2
20260904234551 62 328 0.0 0.0 0.00 0.12 0.00 51 1012.1
20260904233052 62 355 0.0 0.0 0.00 0.12 0.00 51 1012.2
20260904231550 62 98 0.0 0.0 0.00 0.12 0.00 51 1012.1
20260904230049 62 60 0.0 0.0 0.00 0.12 0.00 49 1012.2